This demonstration page uses our WeatherBlox Daily Observations layout. Learn more.

38.89511, -77.03637

Hourly Observations for September 16, 2019

Temp ( °F °C ) Dew Point ( °F °C ) Humidity (%) Winds ( mph kmh ) Pressure ( in mb ) Visibility ( mi km ) Precip ( " mm )
12:52 am 00:52 Mostly Clear 72 22.2 62 16.7 71 71 SSW 3 6 30.09 1019 10 16.09344 0 0
1:52 am 01:52 Partly Cloudy 71 21.7 61 16.1 71 71 Calm 30.09 1019 10 16.09344 0 0
2:52 am 02:52 Mostly Clear 70 21.1 63 17.2 79 79 SSW 3 6 30.06 1018 10 16.09344 0 0
3:52 am 03:52 Partly Cloudy 69 20.6 62 16.7 78 78 Calm 30.06 1018 10 16.09344 0 0
4:52 am 04:52 Partly Cloudy 69 20.6 63 17.2 81 81 Calm 30.06 1018 10 16.09344 0 0
5:52 am 05:52 Mostly Cloudy 69 20.6 63 17.2 81 81 Calm 30.06 1018 10 16.09344 0 0
6:52 am 06:52 Mostly Sunny 68 20 63 17.2 84 84 Calm 30.06 1018 10 16.09344 0 0
7:52 am 07:52 Mostly Sunny 70 21.1 66 18.9 87 87 S 3 6 30.06 1018 10 16.09344 0 0
8:52 am 08:52 Mostly Sunny 74 23.3 67 19.4 79 79 E 3 6 30.06 1018 10 16.09344 0 0
9:52 am 09:52 Mostly Sunny 78 25.6 63 17.2 60 60 SSE 5 7 30.06 1018 10 16.09344 0 0
10:52 am 10:52 Mostly Cloudy 81 27.2 66 18.9 61 61 S 7 11 30.06 1018 10 16.09344 0 0
11:52 am 11:52 Mostly Cloudy 83 28.3 66 18.9 57 57 SSE 7 11 30.03 1017 10 16.09344 0 0
12:52 pm 12:52 Mostly Cloudy 86 30 64 17.8 48 48 SSE 5 7 30.03 1017 10 16.09344 0 0
1:52 pm 13:52 Partly Cloudy 87 30.6 64 17.8 46 46 SE 3 6 30 1016 10 16.09344 0 0
2:52 pm 14:52 Mostly Sunny 90 32.2 62 16.7 39 39 VRB 3 6 29.97 1015 10 16.09344 0 0
3:52 pm 15:52 Partly Cloudy 89 31.7 61 16.1 39 39 SE 5 7 29.94 1014 10 16.09344 0 0
4:52 pm 16:52 Mostly Cloudy 90 32.2 59 15 35 35 ENE 3 6 29.94 1014 10 16.09344 0 0
5:52 pm 17:52 Mostly Cloudy 91 32.8 57 13.9 32 32 N 8 13 29.94 1014 10 16.09344 0 0
6:52 pm 18:52 Mostly Cloudy 87 30.6 62 16.7 43 43 NNE 5 7 29.94 1014 10 16.09344 0 0
7:52 pm 19:52 Mostly Cloudy 82 27.8 68 20 63 63 ENE 10 17 29.94 1014 10 16.09344 0 0
8:52 pm 20:52 Mostly Cloudy 80 26.7 64 17.8 58 58 E 3 6 29.97 1015 10 16.09344 0 0
9:52 pm 21:52 Cloudy 80 26.7 62 16.7 54 54 E 6 9 29.97 1015 10 16.09344 0 0
10:52 pm 22:52 Mostly Cloudy 80 26.7 63 17.2 56 56 ESE 7 11 29.97 1015 10 16.09344 0 0
11:52 pm 23:52 Partly Cloudy 78 25.6 63 17.2 60 60 ENE 10 17 30 1016 10 16.09344 0 0

Powered by AerisWeather